Regional Weather Roundup
Issued by NWS

Home | Current Version | Previous Version | Text Only | Print | Product List | Glossary Off
Versions: 1 2 3 4 5 6 7 8 9 10 11 12 13 14 15 16 17 18 19 20 21 22 23 24 25 26 27 28 29 30 31 32 33 34 35 36 37 38 39 40 41 42 43 44 45 46 47 48 49 50

000
ASUS43 KOAX 240010
RWRNE

WEATHER ROUNDUP FOR NEBRASKA
NATIONAL WEATHER SERVICE OMAHA NE
700 PM CDT WED AUG 23 2017

NOTES: SATELLITE DATA IS BEING USED TO AUGMENT CLOUD COVER ABOVE
       12000 FEET.
       "FAIR" INDICATES FEW OR NO CLOUDS BELOW 12,000 FEET WITH NO
       SIGNIFICANT WEATHER AND/OR OBSTRUCTIONS TO VISIBILITY.


NEZ001>004-019>022-054>056-240100-
NEBRASKA PANHANDLE

CITY           SKY/WX    TMP DP  RH WIND       PRES   REMARKS
SCOTTSBLUFF    MOSUNNY   84  60  44 SE6       30.00R
6HR MIN TEMP:  78; 6HR MAX TEMP:  91;

ALLIANCE       SUNNY     84  58  40 SE7       29.99S
6HR MIN TEMP:  79; 6HR MAX TEMP:  87;

CHADRON        CLOUDY    88  53  30 S8        29.92F
6HR MIN TEMP:  84; 6HR MAX TEMP:  94;

GORDON         FAIR      86  56  35 CALM      29.96S
6HR MIN TEMP:  83; 6HR MAX TEMP:  92;

KIMBALL        CLOUDY    78  47  32 NW16      30.10R
SIDNEY         CLOUDY    85  58  39 SE13      30.03S
6HR MIN TEMP:  82; 6HR MAX TEMP:  92;

$$

NEZ057>060-069>072-079>082-240100-
SOUTHWEST NEBRASKA

CITY           SKY/WX    TMP DP  RH WIND       PRES   REMARKS
NORTH PLATTE   SUNNY     81  58  45 S15       29.99S
6HR MIN TEMP:  78; 6HR MAX TEMP:  83; 6HR PCP: TRACE;

IMPERIAL       SUNNY     86  58  38 S14G21    29.99F
6HR MIN TEMP:  81; 6HR MAX TEMP:  88;

LEXINGTON      SUNNY     80  53  40 S10       30.01F
MCCOOK         SUNNY     83  53  35 S10       30.00F
6HR MIN TEMP:  80; 6HR MAX TEMP:  86;

OGALLALA       SUNNY     85  60  42 S7        29.99S
$$

NEZ005>010-023>029-035>040-094-240100-
NORTH CENTRAL NEBRASKA

CITY           SKY/WX    TMP DP  RH WIND       PRES   REMARKS
VALENTINE      SUNNY     89  58  34 S13       29.91F
6HR MIN TEMP:  85; 6HR MAX TEMP:  91;

AINSWORTH      SUNNY     82  62  50 S13       29.96F
BROKEN BOW     SUNNY     81  53  37 S13       30.00F
6HR MIN TEMP:  79; 6HR MAX TEMP:  83;

O`NEILL        SUNNY     78  58  50 S13G20    29.98S
ORD            SUNNY     78  54  43 S13       29.99F
6HR MIN TEMP:  76; 6HR MAX TEMP:  80;

THEDFORD       SUNNY     84  60  43 S15G21    29.98S
$$

NEZ041-046>049-061>064-073>077-083>087-240100-
SOUTH CENTRAL NEBRASKA

CITY           SKY/WX    TMP DP  RH WIND       PRES   REMARKS
GRAND ISLAND   SUNNY     78  58  49 SE12      30.02F
6HR MIN TEMP:  76; 6HR MAX TEMP:  80;

AURORA         SUNNY     76  58  54 S10       30.03F
HASTINGS       SUNNY     79  53  40 S8        30.04F
6HR MIN TEMP:  74; 6HR MAX TEMP:  81;

HEBRON         SUNNY     80  52  37 S7        30.03F
HOLDREGE       SUNNY     78  52  39 S7        30.02S
KEARNEY        SUNNY     78  57  48 S10       30.02F
YORK           SUNNY     75  63  64 S6        30.03F
$$

NEZ011>018-030>034-042>045-240100-
NORTHEAST NEBRASKA

CITY           SKY/WX    TMP DP  RH WIND       PRES   REMARKS
NORFOLK        SUNNY     76  61  59 S12       29.99F
6HR MIN TEMP:  75; 6HR MAX TEMP:  78;

ALBION         SUNNY     77  62  59 S9        30.01S
BLAIR          SUNNY     75  60  59 S7        30.03F
COLUMBUS       SUNNY     76  61  59 S7        30.02F
FREMONT        SUNNY     76  58  52 SE8       30.03F
TEKAMAH        SUNNY     76  60  57 S5        30.02F
6HR MIN TEMP:  76; 6HR MAX TEMP:  79;

WAYNE          SUNNY     74  62  64 S10       30.00F
$$

NEZ050>053-065>068-078-088>093-240100-
SOUTHEAST NEBRASKA

CITY           SKY/WX    TMP DP  RH WIND       PRES   REMARKS
LINCOLN        SUNNY     77  58  51 S8        30.04F
6HR MIN TEMP:  76; 6HR MAX TEMP:  80;

OMAHA EPPLEY   SUNNY     78  56  46 S10       30.03F
6HR MIN TEMP:  77; 6HR MAX TEMP:  80;

BEATRICE       SUNNY     80  57  45 E5        30.03F
FALLS CITY     SUNNY     74  59  59 SE5       30.05F
6HR MIN TEMP:  74; 6HR MAX TEMP:  80;

NEBRASKA CITY  SUNNY     75  60  60 SE5       30.05F
PLATTSMOUTH    SUNNY     75  57  53 SE7       30.05F
$$

NEZ044-045-051>053-067-240100-
OMAHA AREA

CITY           SKY/WX    TMP DP  RH WIND       PRES   REMARKS
OMAHA EPPLEY   SUNNY     78  56  46 S10       30.03F
6HR MIN TEMP:  77; 6HR MAX TEMP:  80;

BLAIR          SUNNY     75  60  59 S7        30.03F
FREMONT        SUNNY     76  58  52 SE8       30.03F
MILLARD        SUNNY     78  59  51 S8        30.03F
OFFUTT AFB     SUNNY     76  57  51 SE9       30.03F
PLATTSMOUTH    SUNNY     75  57  53 SE7       30.05F
WAHOO          FAIR      75  60  58 S6        30.02F
$$



USA.gov is the U.S. government's official web portal to all federal, state and local government web resources and services.